Year,Month,Day,Hour,Minute,Value (Times are PST for temperature in C)
2016,07,14,00,00,16.40
2016,07,14,00,01,16.40
2016,07,14,00,02,16.40
2016,07,14,00,03,16.30
2016,07,14,00,04,16.30
2016,07,14,00,05,16.30
2016,07,14,00,06,16.30
2016,07,14,00,07,16.30
2016,07,14,00,08,16.30
2016,07,14,00,09,16.30
2016,07,14,00,10,16.30
2016,07,14,00,11,16.30
2016,07,14,00,12,16.30
2016,07,14,00,13,16.30
2016,07,14,00,14,16.30
2016,07,14,00,15,16.30
2016,07,14,00,16,16.30
2016,07,14,00,17,16.20
2016,07,14,00,18,16.20
2016,07,14,00,19,16.20
2016,07,14,00,20,16.20
2016,07,14,00,21,16.20
2016,07,14,00,22,16.10
2016,07,14,00,23,16.10
2016,07,14,00,24,16.00
2016,07,14,00,25,16.00
2016,07,14,00,26,16.00
2016,07,14,00,27,16.00
2016,07,14,00,28,16.00
2016,07,14,00,29,16.00
2016,07,14,00,30,15.90
2016,07,14,00,31,15.90
2016,07,14,00,32,15.90
2016,07,14,00,33,15.80
2016,07,14,00,34,15.80
2016,07,14,00,35,15.80
2016,07,14,00,36,15.80
2016,07,14,00,37,15.80
2016,07,14,00,38,15.80
2016,07,14,00,39,15.80
2016,07,14,00,40,15.70
2016,07,14,00,41,15.70
2016,07,14,00,42,15.70
2016,07,14,00,43,15.70
2016,07,14,00,44,15.80
2016,07,14,00,45,15.80
2016,07,14,00,46,15.70
2016,07,14,00,47,15.70
2016,07,14,00,48,15.70
2016,07,14,00,49,15.70
2016,07,14,00,50,15.70
2016,07,14,00,51,15.70
2016,07,14,00,52,15.70
2016,07,14,00,53,15.60
2016,07,14,00,54,15.60
2016,07,14,00,55,15.60
2016,07,14,00,56,15.60
2016,07,14,00,57,15.60
2016,07,14,00,58,15.60
2016,07,14,00,59,15.60
2016,07,14,01,00,15.60
2016,07,14,01,01,15.50
2016,07,14,01,02,15.50
2016,07,14,01,03,15.50
2016,07,14,01,04,15.50
2016,07,14,01,05,15.40
2016,07,14,01,06,15.40
2016,07,14,01,07,15.40
2016,07,14,01,08,15.30
2016,07,14,01,09,15.30
2016,07,14,01,10,15.30
2016,07,14,01,11,15.20
2016,07,14,01,12,15.20
2016,07,14,01,13,15.10
2016,07,14,01,14,15.10
2016,07,14,01,15,15.10
2016,07,14,01,16,15.10
2016,07,14,01,17,15.10
2016,07,14,01,18,15.00
2016,07,14,01,19,15.00
2016,07,14,01,20,15.00
2016,07,14,01,21,14.90
2016,07,14,01,22,14.90
2016,07,14,01,23,14.80
2016,07,14,01,24,14.80
2016,07,14,01,25,14.70
2016,07,14,01,26,14.70
2016,07,14,01,27,14.70
2016,07,14,01,28,14.70
2016,07,14,01,29,14.70
2016,07,14,01,30,14.70
2016,07,14,01,31,14.70
2016,07,14,01,32,14.70
2016,07,14,01,33,14.60
2016,07,14,01,34,14.60
2016,07,14,01,35,14.60
2016,07,14,01,36,14.60
2016,07,14,01,37,14.60
2016,07,14,01,38,14.60
2016,07,14,01,39,14.60
2016,07,14,01,40,14.60
2016,07,14,01,41,14.60
2016,07,14,01,42,14.60
2016,07,14,01,43,14.60
2016,07,14,01,44,14.60
2016,07,14,01,45,14.50
2016,07,14,01,46,14.50
2016,07,14,01,47,14.50
2016,07,14,01,48,14.50
2016,07,14,01,49,14.50
2016,07,14,01,50,14.50
2016,07,14,01,51,14.50
2016,07,14,01,52,14.50
2016,07,14,01,53,14.50
2016,07,14,01,54,14.50
2016,07,14,01,55,14.50
2016,07,14,01,56,14.60
2016,07,14,01,57,14.60
2016,07,14,01,58,14.60
2016,07,14,01,59,14.70
2016,07,14,02,00,14.70
2016,07,14,02,01,14.70
2016,07,14,02,02,14.70
2016,07,14,02,03,14.80
2016,07,14,02,04,14.80
2016,07,14,02,05,14.80
2016,07,14,02,06,14.80
2016,07,14,02,07,14.80
2016,07,14,02,08,14.80
2016,07,14,02,09,14.80
2016,07,14,02,10,14.80
2016,07,14,02,11,14.80
2016,07,14,02,12,14.80
2016,07,14,02,13,14.80
2016,07,14,02,14,14.80
2016,07,14,02,15,14.80
2016,07,14,02,16,14.80
2016,07,14,02,17,14.80
2016,07,14,02,18,14.80
2016,07,14,02,19,14.80
2016,07,14,02,20,14.80
2016,07,14,02,21,14.80
2016,07,14,02,22,14.80
2016,07,14,02,23,14.80
2016,07,14,02,24,14.80
2016,07,14,02,25,14.80
2016,07,14,02,26,14.80
2016,07,14,02,27,14.80
2016,07,14,02,28,14.80
2016,07,14,02,29,14.80
2016,07,14,02,30,14.70
2016,07,14,02,31,14.70
2016,07,14,02,32,14.70
2016,07,14,02,33,14.70
2016,07,14,02,34,14.70
2016,07,14,02,35,14.70
2016,07,14,02,36,14.60
2016,07,14,02,37,14.60
2016,07,14,02,38,14.60
2016,07,14,02,39,14.60
2016,07,14,02,40,14.50
2016,07,14,02,41,14.50
2016,07,14,02,42,14.50
2016,07,14,02,43,14.40
2016,07,14,02,44,14.40
2016,07,14,02,45,14.30
2016,07,14,02,46,14.30
2016,07,14,02,47,14.20
2016,07,14,02,48,14.10
2016,07,14,02,49,14.10
2016,07,14,02,50,14.00
2016,07,14,02,51,14.00
2016,07,14,02,52,13.90
2016,07,14,02,53,13.80
2016,07,14,02,54,13.80
2016,07,14,02,55,13.80
2016,07,14,02,56,13.70
2016,07,14,02,57,13.70
2016,07,14,02,58,13.70
2016,07,14,02,59,13.60
2016,07,14,03,00,13.60
2016,07,14,03,01,13.60
2016,07,14,03,02,13.50
2016,07,14,03,03,13.50
2016,07,14,03,04,13.50
2016,07,14,03,05,13.40
2016,07,14,03,06,13.40
2016,07,14,03,07,13.40
2016,07,14,03,08,13.40
2016,07,14,03,09,13.40
2016,07,14,03,10,13.30
2016,07,14,03,11,13.30
2016,07,14,03,12,13.30
2016,07,14,03,13,13.30
2016,07,14,03,14,13.30
2016,07,14,03,15,13.30
2016,07,14,03,16,13.30
2016,07,14,03,17,13.30
2016,07,14,03,18,13.30
2016,07,14,03,19,13.20
2016,07,14,03,20,13.20
2016,07,14,03,21,13.20
2016,07,14,03,22,13.20
2016,07,14,03,23,13.20
2016,07,14,03,24,13.20
2016,07,14,03,25,13.20
2016,07,14,03,26,13.10
2016,07,14,03,27,13.10
2016,07,14,03,28,13.10
2016,07,14,03,29,13.10
2016,07,14,03,30,13.10
2016,07,14,03,31,13.10
2016,07,14,03,32,13.10
2016,07,14,03,33,13.00
2016,07,14,03,34,13.00
2016,07,14,03,35,13.00
2016,07,14,03,36,13.00
2016,07,14,03,37,13.00
2016,07,14,03,38,13.00
2016,07,14,03,39,12.90
2016,07,14,03,40,12.90
2016,07,14,03,41,12.90
2016,07,14,03,42,12.90
2016,07,14,03,43,12.90
2016,07,14,03,44,12.90
2016,07,14,03,45,12.90
2016,07,14,03,46,12.80
2016,07,14,03,47,12.80
2016,07,14,03,48,12.80
2016,07,14,03,49,12.80
2016,07,14,03,50,12.80
2016,07,14,03,51,12.80
2016,07,14,03,52,12.80
2016,07,14,03,53,12.80
2016,07,14,03,54,12.80
2016,07,14,03,55,12.80
2016,07,14,03,56,12.80
2016,07,14,03,57,12.80
2016,07,14,03,58,12.80
2016,07,14,03,59,12.80
2016,07,14,04,00,12.80
2016,07,14,04,01,12.80
2016,07,14,04,02,12.70
2016,07,14,04,03,12.70
2016,07,14,04,04,12.70
2016,07,14,04,05,12.70
2016,07,14,04,06,12.60
2016,07,14,04,07,12.60
2016,07,14,04,08,12.60
2016,07,14,04,09,12.50
2016,07,14,04,10,12.50
2016,07,14,04,11,12.40
2016,07,14,04,12,12.40
2016,07,14,04,13,12.30
2016,07,14,04,14,12.30
2016,07,14,04,15,12.20
2016,07,14,04,16,12.20
2016,07,14,04,17,12.20
2016,07,14,04,18,12.10
2016,07,14,04,19,12.10
2016,07,14,04,20,12.00
2016,07,14,04,21,12.00
2016,07,14,04,22,11.90
2016,07,14,04,23,11.90
2016,07,14,04,24,11.90
2016,07,14,04,25,11.80
2016,07,14,04,26,11.80
2016,07,14,04,27,11.70
2016,07,14,04,28,11.70
2016,07,14,04,29,11.70
2016,07,14,04,30,11.70
2016,07,14,04,31,11.60
2016,07,14,04,32,11.60
2016,07,14,04,33,11.60
2016,07,14,04,34,11.50
2016,07,14,04,35,11.50
2016,07,14,04,36,11.40
2016,07,14,04,37,11.40
2016,07,14,04,38,11.40
2016,07,14,04,39,11.30
2016,07,14,04,40,11.30
2016,07,14,04,41,11.20
2016,07,14,04,42,11.20
2016,07,14,04,43,11.20
2016,07,14,04,44,11.10
2016,07,14,04,45,11.10
2016,07,14,04,46,11.10
2016,07,14,04,47,11.00
2016,07,14,04,48,11.00
2016,07,14,04,49,11.00
2016,07,14,04,50,11.00
2016,07,14,04,51,10.90
2016,07,14,04,52,10.90
2016,07,14,04,53,10.90
2016,07,14,04,54,10.90
2016,07,14,04,55,10.80
2016,07,14,04,56,10.80
2016,07,14,04,57,10.80
2016,07,14,04,58,10.80
2016,07,14,04,59,10.80
2016,07,14,05,00,10.80
2016,07,14,05,01,10.80
2016,07,14,05,02,10.80
2016,07,14,05,03,10.70
2016,07,14,05,04,10.70
2016,07,14,05,05,10.70
2016,07,14,05,06,10.70
2016,07,14,05,07,10.60
2016,07,14,05,08,10.60
2016,07,14,05,09,10.60
2016,07,14,05,10,10.60
2016,07,14,05,11,10.60
2016,07,14,05,12,10.60
2016,07,14,05,13,10.60
2016,07,14,05,14,10.60
2016,07,14,05,15,10.60
2016,07,14,05,16,10.50
2016,07,14,05,17,10.50
2016,07,14,05,18,10.50
2016,07,14,05,19,10.50
2016,07,14,05,20,10.50
2016,07,14,05,21,10.40
2016,07,14,05,22,10.40
2016,07,14,05,23,10.40
2016,07,14,05,24,10.40
2016,07,14,05,25,10.30
2016,07,14,05,26,10.30
2016,07,14,05,27,10.30
2016,07,14,05,28,10.30
2016,07,14,05,29,10.30
2016,07,14,05,30,10.30
2016,07,14,05,31,10.30
2016,07,14,05,32,10.30
2016,07,14,05,33,10.30
2016,07,14,05,34,10.30
2016,07,14,05,35,10.30
2016,07,14,05,36,10.30
2016,07,14,05,37,10.30
2016,07,14,05,38,10.20
2016,07,14,05,39,10.20
2016,07,14,05,40,10.20
2016,07,14,05,41,10.20
2016,07,14,05,42,10.20
2016,07,14,05,43,10.20
2016,07,14,05,44,10.20
2016,07,14,05,45,10.20
2016,07,14,05,46,10.20
2016,07,14,05,47,10.20
2016,07,14,05,48,10.20
2016,07,14,05,49,10.20
2016,07,14,05,50,10.20
2016,07,14,05,51,10.10
2016,07,14,05,52,10.10
2016,07,14,05,53,10.10
2016,07,14,05,54,10.10
2016,07,14,05,55,10.10
2016,07,14,05,56,10.10
2016,07,14,05,57,10.00
2016,07,14,05,58,10.00
2016,07,14,05,59,10.00
2016,07,14,06,00,10.00
2016,07,14,06,01,10.00
2016,07,14,06,02,10.00
2016,07,14,06,03,10.00
2016,07,14,06,04,10.00
2016,07,14,06,05,10.00
2016,07,14,06,06,10.00
2016,07,14,06,07,10.00
2016,07,14,06,08,10.00
2016,07,14,06,09,10.00
2016,07,14,06,10,10.00
2016,07,14,06,11,10.00
2016,07,14,06,12,10.00
2016,07,14,06,13,10.00
2016,07,14,06,14,10.10
2016,07,14,06,15,10.10
2016,07,14,06,16,10.10
2016,07,14,06,17,10.10
2016,07,14,06,18,10.10
2016,07,14,06,19,10.10
2016,07,14,06,20,10.10
2016,07,14,06,21,10.20
2016,07,14,06,22,10.10
2016,07,14,06,23,10.10
2016,07,14,06,24,10.10
2016,07,14,06,25,10.20
2016,07,14,06,26,10.20
2016,07,14,06,27,10.20
2016,07,14,06,28,10.20
2016,07,14,06,29,10.20
2016,07,14,06,30,10.20
2016,07,14,06,31,10.20
2016,07,14,06,32,10.20
2016,07,14,06,33,10.20
2016,07,14,06,34,10.20
2016,07,14,06,35,10.20
2016,07,14,06,36,10.20
2016,07,14,06,37,10.20
2016,07,14,06,38,10.20
2016,07,14,06,39,10.10
2016,07,14,06,40,10.10
2016,07,14,06,41,10.00
2016,07,14,06,42,10.00
2016,07,14,06,43,10.00
2016,07,14,06,44,9.90
2016,07,14,06,45,9.90
2016,07,14,06,46,10.00
2016,07,14,06,47,10.00
2016,07,14,06,48,10.00
2016,07,14,06,49,10.10
2016,07,14,06,50,10.20
2016,07,14,06,51,10.20
2016,07,14,06,52,10.30
2016,07,14,06,53,10.30
2016,07,14,06,54,10.40
2016,07,14,06,55,10.40
2016,07,14,06,56,10.50
2016,07,14,06,57,10.50
2016,07,14,06,58,10.60
2016,07,14,06,59,10.60
2016,07,14,07,00,10.70
2016,07,14,07,01,10.70
2016,07,14,07,02,10.70
2016,07,14,07,03,10.80
2016,07,14,07,04,10.80
2016,07,14,07,05,10.80
2016,07,14,07,06,10.80
2016,07,14,07,07,10.90
2016,07,14,07,08,10.90
2016,07,14,07,09,10.90
2016,07,14,07,10,10.90
2016,07,14,07,11,11.00
2016,07,14,07,12,11.00
2016,07,14,07,13,11.10
2016,07,14,07,14,11.10
2016,07,14,07,15,11.10
2016,07,14,07,16,11.20
2016,07,14,07,17,11.20
2016,07,14,07,18,11.30
2016,07,14,07,19,11.30
2016,07,14,07,20,11.40
2016,07,14,07,21,11.50
2016,07,14,07,22,11.50
2016,07,14,07,23,11.60
2016,07,14,07,24,11.70
2016,07,14,07,25,11.80
2016,07,14,07,26,11.80
2016,07,14,07,27,11.90
2016,07,14,07,28,12.00
2016,07,14,07,29,12.10
2016,07,14,07,30,12.10
2016,07,14,07,31,12.20
2016,07,14,07,32,12.30
2016,07,14,07,33,12.40
2016,07,14,07,34,12.50
2016,07,14,07,35,12.60
2016,07,14,07,36,12.70
2016,07,14,07,37,12.70
2016,07,14,07,38,12.80
2016,07,14,07,39,12.90
2016,07,14,07,40,13.00
2016,07,14,07,41,13.00
2016,07,14,07,42,13.10
2016,07,14,07,43,13.20
2016,07,14,07,44,13.20
2016,07,14,07,45,13.30
2016,07,14,07,46,13.30
2016,07,14,07,47,13.40
2016,07,14,07,48,13.40
2016,07,14,07,49,13.50
2016,07,14,07,50,13.50
2016,07,14,07,51,13.50
2016,07,14,07,52,13.60
2016,07,14,07,53,13.60
2016,07,14,07,54,13.70
2016,07,14,07,55,13.70
2016,07,14,07,56,13.70
2016,07,14,07,57,13.70
2016,07,14,07,58,13.70
2016,07,14,07,59,13.70
2016,07,14,08,00,13.70
2016,07,14,08,01,13.80
2016,07,14,08,02,13.80
2016,07,14,08,03,13.80
2016,07,14,08,04,13.80
2016,07,14,08,05,13.80
2016,07,14,08,06,13.90
2016,07,14,08,07,13.90
2016,07,14,08,08,13.90
2016,07,14,08,09,14.00
2016,07,14,08,10,14.00
2016,07,14,08,11,14.00
2016,07,14,08,12,14.10
2016,07,14,08,13,14.10
2016,07,14,08,14,14.10
2016,07,14,08,15,14.20
2016,07,14,08,16,14.20
2016,07,14,08,17,14.20
2016,07,14,08,18,14.30
2016,07,14,08,19,14.30
2016,07,14,08,20,14.40
2016,07,14,08,21,14.40
2016,07,14,08,22,14.40
2016,07,14,08,23,14.50
2016,07,14,08,24,14.60
2016,07,14,08,25,14.60
2016,07,14,08,26,14.70
2016,07,14,08,27,14.70
2016,07,14,08,28,14.80
2016,07,14,08,29,14.80
2016,07,14,08,30,14.90
2016,07,14,08,31,14.90
2016,07,14,08,32,15.00
2016,07,14,08,33,15.00
2016,07,14,08,34,15.10
2016,07,14,08,35,15.20
2016,07,14,08,36,15.20
2016,07,14,08,37,15.20
2016,07,14,08,38,15.30
2016,07,14,08,39,15.40
2016,07,14,08,40,15.40
2016,07,14,08,41,15.50
2016,07,14,08,42,15.60
2016,07,14,08,43,15.60
2016,07,14,08,44,15.60
2016,07,14,08,45,15.60
2016,07,14,08,46,15.60
2016,07,14,08,47,15.60
2016,07,14,08,48,15.70
2016,07,14,08,49,15.70
2016,07,14,08,50,15.70
2016,07,14,08,51,15.70
2016,07,14,08,52,15.70
2016,07,14,08,53,15.70
2016,07,14,08,54,15.70
2016,07,14,08,55,15.80
2016,07,14,08,56,15.80
2016,07,14,08,57,15.80
2016,07,14,08,58,15.80
2016,07,14,08,59,15.90
2016,07,14,09,00,15.90
2016,07,14,09,01,15.90
2016,07,14,09,02,16.00
2016,07,14,09,03,16.00
2016,07,14,09,04,16.00
2016,07,14,09,05,16.00
2016,07,14,09,06,16.00
2016,07,14,09,07,16.00
2016,07,14,09,08,16.00
2016,07,14,09,09,16.00
2016,07,14,09,10,16.10
2016,07,14,09,11,16.10
2016,07,14,09,12,16.20
2016,07,14,09,13,16.20
2016,07,14,09,14,16.20
2016,07,14,09,15,16.30
2016,07,14,09,16,16.30
2016,07,14,09,17,16.40
2016,07,14,09,18,16.40
2016,07,14,09,19,16.40
2016,07,14,09,20,16.50
2016,07,14,09,21,16.50
2016,07,14,09,22,16.50
2016,07,14,09,23,16.50
2016,07,14,09,24,16.60
2016,07,14,09,25,16.60
2016,07,14,09,26,16.70
2016,07,14,09,27,16.70
2016,07,14,09,28,16.70
2016,07,14,09,29,16.80
2016,07,14,09,30,16.80
2016,07,14,09,31,16.80
2016,07,14,09,32,16.80
2016,07,14,09,33,16.80
2016,07,14,09,34,16.80
2016,07,14,09,35,16.80
2016,07,14,09,36,16.90
2016,07,14,09,37,16.90
2016,07,14,09,38,16.90
2016,07,14,09,39,16.90
2016,07,14,09,40,16.90
2016,07,14,09,41,16.90
2016,07,14,09,42,16.90
2016,07,14,09,43,16.90
2016,07,14,09,44,16.90
2016,07,14,09,45,16.90
2016,07,14,09,46,16.90
2016,07,14,09,47,17.00
2016,07,14,09,48,17.00
2016,07,14,09,49,17.10
2016,07,14,09,50,17.20
2016,07,14,09,51,17.30
2016,07,14,09,52,17.40
2016,07,14,09,53,17.40
2016,07,14,09,54,17.40
2016,07,14,09,55,17.40
2016,07,14,09,56,17.50
2016,07,14,09,57,17.50
2016,07,14,09,58,17.60
2016,07,14,09,59,17.60
2016,07,14,10,00,17.60
2016,07,14,10,01,17.70
2016,07,14,10,02,17.70
2016,07,14,10,03,17.70
2016,07,14,10,04,17.70
2016,07,14,10,05,17.80
2016,07,14,10,06,17.80
2016,07,14,10,07,17.90
2016,07,14,10,08,17.90
2016,07,14,10,09,18.00
2016,07,14,10,10,18.10
2016,07,14,10,11,18.10
2016,07,14,10,12,18.20
2016,07,14,10,13,18.10
2016,07,14,10,14,18.10
2016,07,14,10,15,18.10
2016,07,14,10,16,18.10
2016,07,14,10,17,18.10
2016,07,14,10,18,18.10
2016,07,14,10,19,18.10
2016,07,14,10,20,18.10
2016,07,14,10,21,18.20
2016,07,14,10,22,18.20
2016,07,14,10,23,18.20
2016,07,14,10,24,18.20
2016,07,14,10,25,18.20
2016,07,14,10,26,18.30
2016,07,14,10,27,18.30
2016,07,14,10,28,18.20
2016,07,14,10,29,18.20
2016,07,14,10,30,18.30
2016,07,14,10,31,18.30
2016,07,14,10,32,18.30
2016,07,14,10,33,18.20
2016,07,14,10,34,18.20
2016,07,14,10,35,18.20
2016,07,14,10,36,18.20
2016,07,14,10,37,18.20
2016,07,14,10,38,18.20
2016,07,14,10,39,18.20
2016,07,14,10,40,18.20
2016,07,14,10,41,18.20
2016,07,14,10,42,18.20
2016,07,14,10,43,18.20
2016,07,14,10,44,18.30
2016,07,14,10,45,18.40
2016,07,14,10,46,18.50
2016,07,14,10,47,18.60
2016,07,14,10,48,18.60
2016,07,14,10,49,18.60
2016,07,14,10,50,18.60
2016,07,14,10,51,18.60
2016,07,14,10,52,18.70
2016,07,14,10,53,18.80
2016,07,14,10,54,18.90
2016,07,14,10,55,18.90
2016,07,14,10,56,18.70
2016,07,14,10,57,18.70
2016,07,14,10,58,18.60
2016,07,14,10,59,18.60
2016,07,14,11,00,18.50
2016,07,14,11,01,18.50
2016,07,14,11,02,18.40
2016,07,14,11,03,18.40
2016,07,14,11,04,18.40
2016,07,14,11,05,18.40
2016,07,14,11,06,18.30
2016,07,14,11,07,18.30
2016,07,14,11,08,18.40
2016,07,14,11,09,18.30
2016,07,14,11,10,18.30
2016,07,14,11,11,18.40
2016,07,14,11,12,18.40
2016,07,14,11,13,18.40
2016,07,14,11,14,18.50
2016,07,14,11,15,18.50
2016,07,14,11,16,18.50
2016,07,14,11,17,18.50
2016,07,14,11,18,18.50
2016,07,14,11,19,18.60
2016,07,14,11,20,18.60
2016,07,14,11,21,18.60
2016,07,14,11,22,18.60
2016,07,14,11,23,18.60
2016,07,14,11,24,18.50
2016,07,14,11,25,18.50
2016,07,14,11,26,18.50
2016,07,14,11,27,18.60
2016,07,14,11,28,18.60
2016,07,14,11,29,18.60
2016,07,14,11,30,18.60
2016,07,14,11,31,18.60
2016,07,14,11,32,18.50
2016,07,14,11,33,18.50
2016,07,14,11,34,18.40
2016,07,14,11,35,18.40
2016,07,14,11,36,18.40
2016,07,14,11,37,18.40
2016,07,14,11,38,18.40
2016,07,14,11,39,18.50
2016,07,14,11,40,18.60
2016,07,14,11,41,18.60
2016,07,14,11,42,18.70
2016,07,14,11,43,18.80
2016,07,14,11,44,18.90
2016,07,14,11,45,18.90
2016,07,14,11,46,19.00
2016,07,14,11,47,19.10
2016,07,14,11,48,19.20
2016,07,14,11,49,19.20
2016,07,14,11,50,19.20
2016,07,14,11,51,19.20
2016,07,14,11,52,19.20
2016,07,14,11,53,19.20
2016,07,14,11,54,19.10
2016,07,14,11,55,19.10
2016,07,14,11,56,19.10
2016,07,14,11,57,19.10
2016,07,14,11,58,19.10
2016,07,14,11,59,19.20
2016,07,14,12,00,19.30
2016,07,14,12,01,19.30
2016,07,14,12,02,19.30
2016,07,14,12,03,19.40
2016,07,14,12,04,19.40
2016,07,14,12,05,19.40
2016,07,14,12,06,19.40
2016,07,14,12,07,19.50
2016,07,14,12,08,19.50
2016,07,14,12,09,19.60
2016,07,14,12,10,19.70
2016,07,14,12,11,19.80
2016,07,14,12,12,19.80
2016,07,14,12,13,19.80
2016,07,14,12,14,19.80
2016,07,14,12,15,19.80
2016,07,14,12,16,19.80
2016,07,14,12,17,19.90
2016,07,14,12,18,19.90
2016,07,14,12,19,20.10
2016,07,14,12,20,20.20
2016,07,14,12,21,20.20
2016,07,14,12,22,20.30
2016,07,14,12,23,20.30
2016,07,14,12,24,20.20
2016,07,14,12,25,20.20
2016,07,14,12,26,20.10
2016,07,14,12,27,20.00
2016,07,14,12,28,19.90
2016,07,14,12,29,19.90
2016,07,14,12,30,19.80
2016,07,14,12,31,19.80
2016,07,14,12,32,19.80
2016,07,14,12,33,19.80
2016,07,14,12,34,19.80
2016,07,14,12,35,19.70
2016,07,14,12,36,19.70
2016,07,14,12,37,19.70
2016,07,14,12,38,19.70
2016,07,14,12,39,19.60
2016,07,14,12,40,19.60
2016,07,14,12,41,19.60
2016,07,14,12,42,19.60
2016,07,14,12,43,19.60
2016,07,14,12,44,19.60
2016,07,14,12,45,19.60
2016,07,14,12,46,19.60
2016,07,14,12,47,19.70
2016,07,14,12,48,19.70
2016,07,14,12,49,19.70
2016,07,14,12,50,19.70
2016,07,14,12,51,19.70
2016,07,14,12,52,19.80
2016,07,14,12,53,19.80
2016,07,14,12,54,19.90
2016,07,14,12,55,20.00
2016,07,14,12,56,20.00
2016,07,14,12,57,20.10
2016,07,14,12,58,20.10
2016,07,14,12,59,20.10
2016,07,14,13,00,20.00
2016,07,14,13,01,19.90
2016,07,14,13,02,19.90
2016,07,14,13,03,19.70
2016,07,14,13,04,19.60
2016,07,14,13,05,19.50
2016,07,14,13,06,19.40
2016,07,14,13,07,19.40
2016,07,14,13,08,19.40
2016,07,14,13,09,19.30
2016,07,14,13,10,19.30
2016,07,14,13,11,19.30
2016,07,14,13,12,19.30
2016,07,14,13,13,19.30
2016,07,14,13,14,19.20
2016,07,14,13,15,19.10
2016,07,14,13,16,19.00
2016,07,14,13,17,19.00
2016,07,14,13,18,18.90
2016,07,14,13,19,18.90
2016,07,14,13,20,18.90
2016,07,14,13,21,18.90
2016,07,14,13,22,18.90
2016,07,14,13,23,18.80
2016,07,14,13,24,18.80
2016,07,14,13,25,18.70
2016,07,14,13,26,18.70
2016,07,14,13,27,18.60
2016,07,14,13,28,18.60
2016,07,14,13,29,18.60
2016,07,14,13,30,18.50
2016,07,14,13,31,18.50
2016,07,14,13,32,18.40
2016,07,14,13,33,18.40
2016,07,14,13,34,18.40
2016,07,14,13,35,18.30
2016,07,14,13,36,18.30
2016,07,14,13,37,18.30
2016,07,14,13,38,18.30
2016,07,14,13,39,18.30
2016,07,14,13,40,18.30
2016,07,14,13,41,18.30
2016,07,14,13,42,18.30
2016,07,14,13,43,18.30
2016,07,14,13,44,18.30
2016,07,14,13,45,18.30
2016,07,14,13,46,18.30
2016,07,14,13,47,18.30
2016,07,14,13,48,18.30
2016,07,14,13,49,18.30
2016,07,14,13,50,18.30
2016,07,14,13,51,18.40
2016,07,14,13,52,18.40
2016,07,14,13,53,18.40
2016,07,14,13,54,18.40
2016,07,14,13,55,18.50
2016,07,14,13,56,18.50
2016,07,14,13,57,18.60
2016,07,14,13,58,18.60
2016,07,14,13,59,18.70
2016,07,14,14,00,18.80
2016,07,14,14,01,18.90
2016,07,14,14,02,19.00
2016,07,14,14,03,19.00
2016,07,14,14,04,19.00
2016,07,14,14,05,19.00
2016,07,14,14,06,19.00
2016,07,14,14,07,19.00
2016,07,14,14,08,19.00
2016,07,14,14,09,19.00
2016,07,14,14,10,19.00
2016,07,14,14,11,19.00
2016,07,14,14,12,18.90
2016,07,14,14,13,18.90
2016,07,14,14,14,18.90
2016,07,14,14,15,18.90
2016,07,14,14,16,18.90
2016,07,14,14,17,18.90
2016,07,14,14,18,18.90
2016,07,14,14,19,18.90
2016,07,14,14,20,18.90
2016,07,14,14,21,19.00
2016,07,14,14,22,19.00
2016,07,14,14,23,19.10
2016,07,14,14,24,19.10
2016,07,14,14,25,19.20
2016,07,14,14,26,19.20
2016,07,14,14,27,19.20
2016,07,14,14,28,19.20
2016,07,14,14,29,19.20
2016,07,14,14,30,19.20
2016,07,14,14,31,19.20
2016,07,14,14,32,19.20
2016,07,14,14,33,19.20
2016,07,14,14,34,19.20
2016,07,14,14,35,19.30
2016,07,14,14,36,19.30
2016,07,14,14,37,19.40
2016,07,14,14,38,19.50
2016,07,14,14,39,19.60
2016,07,14,14,40,19.70
2016,07,14,14,41,19.80
2016,07,14,14,42,20.00
2016,07,14,14,43,20.10
2016,07,14,14,44,20.20
2016,07,14,14,45,20.20
2016,07,14,14,46,20.30
2016,07,14,14,47,20.30
2016,07,14,14,48,20.30
2016,07,14,14,49,20.20
2016,07,14,14,50,20.20
2016,07,14,14,51,20.20
2016,07,14,14,52,20.20
2016,07,14,14,53,20.10
2016,07,14,14,54,20.10
2016,07,14,14,55,20.00
2016,07,14,14,56,19.80
2016,07,14,14,57,19.70
2016,07,14,14,58,19.60
2016,07,14,14,59,19.60
2016,07,14,15,00,19.50
2016,07,14,15,01,19.50
2016,07,14,15,02,19.50
2016,07,14,15,03,19.50
2016,07,14,15,04,19.50
2016,07,14,15,05,19.60
2016,07,14,15,06,19.60
2016,07,14,15,07,19.70
2016,07,14,15,08,19.70
2016,07,14,15,09,19.80
2016,07,14,15,10,19.80
2016,07,14,15,11,19.90
2016,07,14,15,12,20.10
2016,07,14,15,13,20.20
2016,07,14,15,14,20.30
2016,07,14,15,15,20.40
2016,07,14,15,16,20.40
2016,07,14,15,17,20.40
2016,07,14,15,18,20.30
2016,07,14,15,19,20.30
2016,07,14,15,20,20.30
2016,07,14,15,21,20.30
2016,07,14,15,22,20.30
2016,07,14,15,23,20.30
2016,07,14,15,24,20.20
2016,07,14,15,25,20.20
2016,07,14,15,26,20.10
2016,07,14,15,27,20.00
2016,07,14,15,28,19.90
2016,07,14,15,29,19.80
2016,07,14,15,30,19.60
2016,07,14,15,31,19.60
2016,07,14,15,32,19.40
2016,07,14,15,33,19.40
2016,07,14,15,34,19.30
2016,07,14,15,35,19.30
2016,07,14,15,36,19.30
2016,07,14,15,37,19.30
2016,07,14,15,38,19.30
2016,07,14,15,39,19.30
2016,07,14,15,40,19.30
2016,07,14,15,41,19.30
2016,07,14,15,42,19.40
2016,07,14,15,43,19.50
2016,07,14,15,44,19.60
2016,07,14,15,45,19.70
2016,07,14,15,46,19.80
2016,07,14,15,47,19.90
2016,07,14,15,48,20.00
2016,07,14,15,49,20.10
2016,07,14,15,50,20.10
2016,07,14,15,51,20.10
2016,07,14,15,52,20.10
2016,07,14,15,53,20.10
2016,07,14,15,54,20.00
2016,07,14,15,55,19.90
2016,07,14,15,56,19.80
2016,07,14,15,57,19.70
2016,07,14,15,58,19.60
2016,07,14,15,59,19.60
2016,07,14,16,00,19.60
2016,07,14,16,01,19.70
2016,07,14,16,02,19.80
2016,07,14,16,03,19.80
2016,07,14,16,04,19.80
2016,07,14,16,05,19.80
2016,07,14,16,06,19.70
2016,07,14,16,07,19.70
2016,07,14,16,08,19.60
2016,07,14,16,09,19.60
2016,07,14,16,10,19.50
2016,07,14,16,11,19.40
2016,07,14,16,12,19.40
2016,07,14,16,13,19.50
2016,07,14,16,14,19.60
2016,07,14,16,15,19.70
2016,07,14,16,16,19.70
2016,07,14,16,17,19.70
2016,07,14,16,18,19.70
2016,07,14,16,19,19.70
2016,07,14,16,20,19.70
2016,07,14,16,21,19.70
2016,07,14,16,22,19.70
2016,07,14,16,23,19.80
2016,07,14,16,24,19.90
2016,07,14,16,25,19.90
2016,07,14,16,26,19.90
2016,07,14,16,27,20.00
2016,07,14,16,28,19.90
2016,07,14,16,29,20.00
2016,07,14,16,30,19.90
2016,07,14,16,31,19.90
2016,07,14,16,32,19.80
2016,07,14,16,33,19.80
2016,07,14,16,34,19.80
2016,07,14,16,35,19.80
2016,07,14,16,36,19.80
2016,07,14,16,37,19.90
2016,07,14,16,38,20.00
2016,07,14,16,39,20.10
2016,07,14,16,40,20.20
2016,07,14,16,41,20.30
2016,07,14,16,42,20.30
2016,07,14,16,43,20.30
2016,07,14,16,44,20.40
2016,07,14,16,45,20.40
2016,07,14,16,46,20.50
2016,07,14,16,47,20.60
2016,07,14,16,48,20.80
2016,07,14,16,49,20.80
2016,07,14,16,50,20.80
2016,07,14,16,51,20.90
2016,07,14,16,52,20.90
2016,07,14,16,53,20.90
2016,07,14,16,54,20.90
2016,07,14,16,55,20.90
2016,07,14,16,56,20.90
2016,07,14,16,57,20.90
2016,07,14,16,58,20.90
2016,07,14,16,59,20.90
2016,07,14,17,00,20.90
2016,07,14,17,01,20.90
2016,07,14,17,02,20.90
2016,07,14,17,03,20.80
2016,07,14,17,04,20.80
2016,07,14,17,05,20.80
2016,07,14,17,06,20.80
2016,07,14,17,07,20.90
2016,07,14,17,08,21.00
2016,07,14,17,09,21.10
2016,07,14,17,10,21.10
2016,07,14,17,11,21.10
2016,07,14,17,12,21.10
2016,07,14,17,13,21.10
2016,07,14,17,14,21.10
2016,07,14,17,15,21.10
2016,07,14,17,16,21.10
2016,07,14,17,17,21.10
2016,07,14,17,18,21.10
2016,07,14,17,19,21.10